www.pogodaiklimat.ru

Погода и климат >> Архив погоды >> Австралия >> Marree Aero


ПОГОДА в Marree Aero

  • Прогноз погоды в Marree Aero
  • Монитор погоды в Marree Aero
  • Климат города

АРХИВ ПОГОДЫ в Marree Aero

Время (UTC), дата Ветер
(напр.,м/с)
 
Видим.   Явления Облачность Т
(С)
Тd
(С)
f
(%)
Тe
(С)
Тes
(С)
Комфортность P
(гПа)
Po
(гПа)
Тmin
(С)
Tmax
(С)
R
(мм)
R24
(мм)
S
(см)
23 11.01 Ю 14 н/о н/о +33.3 +14.8 33 +35 +35 душно 1006.5 1000.8
22 11.01 Ю 13 н/о н/о +34.5 +11.6 25 +34 +34 очень
жарко
1005.3 999.6
00 12.01 Ю 15 н/о н/о +33.4 +15.8 35 +36 +36 очень
душно
1006.8 1001.1
01 12.01 ЮЗ 14 н/о н/о +34.3 +15.7 33 +36 +36 душно 1007.5 1001.8
02 12.01 Ю 13 н/о н/о +33.7 +15.2 33 +36 +36 очень
душно
1007.1 1001.4
03 12.01 Ю 11 н/о н/о +33.4 +15.8 35 +36 +36 очень
душно
1006.9 1001.2
05 12.01 Ю 9 н/о н/о +34.0 +15.9 34 +36 +36 душно 1006.7 1001.0
04 12.01 Ю 10 н/о н/о +34.3 +15.7 33 +36 +36 душно 1006.3 1000.6
06 12.01 ЮЗ 8 н/о н/о +33.7 +17.0 37 +37 +37 очень
душно
1006.9 1001.2
07 12.01 ЮЗ 5 н/о н/о +32.9 +17.1 39 +36 +36 очень
душно
1006.7 1001.0
08 12.01 ЮЗ 8 н/о н/о +32.7 +17.7 41 +37 +37 очень
душно
1006.8 1001.1
09 12.01 ЮЗ 7 н/о н/о +31.6 +18.9 47 +37 +37 очень
душно
1007.7 1002.0
11 12.01 Ю 6 н/о н/о +29.0 +18.4 53 +34 +34 очень
душно
1008.9 1003.2
10 12.01 ЮЗ 9 н/о н/о +29.7 +19.1 53 +35 +35 очень
душно
1008.3 1002.6
12 12.01 Ю 4 н/о н/о +28.5 +18.9 56 +34 +34 очень
душно
1009.6 1003.9
13 12.01 Ю 4 н/о н/о +28.3 +19.0 57 +34 +34 очень
душно
1009.8 1004.1
14 12.01 Ю 5 н/о н/о +28.1 +18.8 57 +33 +33 очень
душно
1009.6 1003.9
15 12.01 ЮЗ 9 н/о н/о +27.1 +14.8 47 +30 +30 душно 1009.7 1004.0
17 12.01 Ю 9 н/о н/о +25.3 +12.2 44 +27 +27 жарко 1008.9 1003.2
16 12.01 Ю 7 н/о н/о +26.1 +13.9 47 +28 +28 жарко 1009.5 1003.8
18 12.01 Ю 9 н/о н/о +24.1 +12.4 48 +26 +26 жарко 1009.2 1003.5
19 12.01 Ю 9 н/о н/о +22.8 +11.8 50 +25 +25 комфорт 1010.3 1004.6
20 12.01 Ю 8 н/о н/о +21.6 +11.3 52 +24 +24 комфорт 1011.2 1005.5
21 12.01 Ю 9 н/о н/о +21.5 +11.8 54 +24 +24 комфорт 1012.3 1006.6
23 12.01 Ю 8 н/о н/о +23.0 +9.8 43 +25 +25 комфорт 1013.5 1007.8
22 12.01 Ю 8 н/о н/о +22.1 +11.2 50 +24 +24 комфорт 1012.9 1007.2
00 13.01 Ю 8 н/о н/о +25.5 +10.1 38 +26 +26 жарко 1013.7 1008.0
01 13.01 Ю 9 н/о н/о +27.0 +8.0 30 +27 +27 жарко 1012.9 1007.2
02 13.01 ЮЗ 8 н/о н/о +28.2 +6.9 26 +27 +27 жарко 1012.7 1007.0
03 13.01 Ю 9 н/о н/о +28.9 +7.5 26 +28 +28 жарко 1011.8 1006.1
05 13.01 Ю 8 н/о н/о +31.2 +7.0 22 +30 +30 жарко 1010.5 1004.8
04 13.01 Ю 9 н/о н/о +30.2 +6.8 23 +29 +29 жарко 1011.4 1005.7
06 13.01 Ю 7 н/о н/о +32.0 +7.0 21 +30 +30 жарко 1010.0 1004.3
07 13.01 ЮЗ 9 н/о н/о +31.6 +6.6 21 +30 +30 жарко 1009.7 1004.0
08 13.01 Ю 9 н/о н/о +31.5 +5.8 20 +30 +30 жарко 1009.6 1003.9
09 13.01 ЮЗ 9 н/о н/о +30.9 +6.7 22 +29 +29 жарко 1010.2 1004.5
11 13.01 Ю 6 н/о н/о +28.8 +6.2 24 +28 +28 жарко 1011.5 1005.8
10 13.01 Ю 6 н/о н/о +29.5 +6.2 23 +28 +28 жарко 1010.9 1005.2
12 13.01 ЮЗ 4 н/о н/о +27.0 +6.9 28 +27 +27 жарко 1011.9 1006.2
13 13.01 Ю 11 н/о н/о +25.7 +12.2 43 +27 +27 жарко 1012.7 1007.0
14 13.01 Ю 11 н/о н/о +24.4 +12.4 47 +26 +26 жарко 1012.7 1007.0
15 13.01 Ю 11 н/о н/о +23.3 +11.7 48 +26 +26 жарко 1012.6 1006.9
17 13.01 Ю 10 н/о н/о +20.8 +8.4 45 +22 +22 комфорт 1012.8 1007.1
16 13.01 Ю 10 н/о н/о +21.8 +10.6 49 +24 +24 комфорт 1012.6 1006.9
18 13.01 Ю 10 н/о н/о +19.7 +7.8 46 +20 +20 1012.9 1007.2
19 13.01 Ю 8 н/о н/о +19.0 +8.1 49 +19 +19 1013.4 1007.7
20 13.01 Ю 8 н/о н/о +18.3 +8.0 51 +18 +18 1014.4 1008.7
21 13.01 Ю 9 н/о н/о +19.2 +7.6 47 +19 +19 1015.3 1009.6
23 13.01 ЮВ 9 н/о н/о +21.9 +4.5 32 +22 +22 комфорт 1016.5 1010.8
22 13.01 ЮВ 11 н/о н/о +20.9 +4.9 35 +21 +21 комфорт 1016.1 1010.4
00 14.01 ЮВ 8 н/о н/о +23.2 +3.7 28 +23 +23 комфорт 1016.7 1011.0
01 14.01 ЮВ 7 н/о н/о +25.5 +2.9 23 +24 +24 комфорт 1016.6 1010.9
02 14.01 ЮВ 6 н/о н/о +26.4 +2.3 21 +25 +25 комфорт 1016.0 1010.3
03 14.01 ЮВ 6 н/о н/о +28.3 +1.7 18 +26 +26 жарко 1015.2 1009.5
05 14.01 ЮВ 7 н/о н/о +29.7 +0.3 15 +27 +27 жарко 1013.9 1008.2
04 14.01 Ю 6 н/о н/о +28.9 +1.4 17 +27 +27 жарко 1014.4 1008.7
06 14.01 ЮВ 5 н/о н/о +30.7 -0.8 13 +28 +28 жарко 1013.5 1007.8
07 14.01 ЮВ 7 н/о н/о +31.1 -1.6 12 +28 +28 жарко 1012.8 1007.1
08 14.01 ЮВ 7 н/о н/о +30.9 -1.8 12 +28 +28 жарко 1012.6 1006.9
09 14.01 ЮВ 7 н/о н/о +30.6 -0.9 13 +27 +27 жарко 1013.0 1007.3
11 14.01 ЮВ 5 н/о н/о +26.9 -1.9 15 +25 +25 комфорт 1014.3 1008.6
10 14.01 ЮВ 6 н/о н/о +28.8 -2.3 13 +26 +26 жарко 1013.7 1008.0
12 14.01 В 5 н/о н/о +25.6 -2.9 15 +23 +23 комфорт 1015.0 1009.3
13 14.01 В 4 н/о н/о +23.0 -4.1 16 +21 +21 комфорт 1015.5 1009.8
14 14.01 ЮВ 3 н/о н/о +20.2 -4.8 18 +20 +20 1015.7 1010.0
15 14.01 Ю 3 н/о н/о +19.4 -4.8 19 +20 +20 1015.3 1009.6
17 14.01 Ю 3 н/о н/о +18.3 -3.2 23 +18 +18 1015.1 1009.4
16 14.01 Ю 5 н/о н/о +19.9 -3.0 21 +20 +20 1015.0 1009.3
18 14.01 Ю 5 н/о н/о +18.3 -2.0 25 +18 +18 1015.3 1009.6
19 14.01 Ю 3 н/о н/о +17.5 -1.7 27 +18 +18 1015.7 1010.0
20 14.01 ЮВ 4 н/о н/о +16.1 -1.9 29 +16 +16 1016.0 1010.3
21 14.01 В 3 н/о н/о +19.4 -1.1 25 +20 +20 1016.7 1011.0
23 14.01 ЮВ 5 н/о н/о +27.1 0.0 17 +25 +25 комфорт 1017.7 1012.0
22 14.01 ЮВ 6 н/о н/о +25.2 0.0 19 +24 +24 комфорт 1017.5 1011.8
00 15.01 В 4 н/о н/о +27.8 +0.5 17 +26 +26 жарко 1017.8 1012.1
01 15.01 В 6 н/о н/о +28.6 +0.3 16 +26 +26 жарко 1017.5 1011.8
02 15.01 В 6 н/о н/о +30.4 -0.1 14 +27 +27 жарко 1016.8 1011.1
03 15.01 ЮВ 5 н/о н/о +32.0 +0.2 13 +29 +29 жарко 1015.6 1009.9
05 15.01 Ю 7 н/о н/о +35.1 -1.1 10 +31 +31 жарко 1013.4 1007.7
04 15.01 ЮВ 7 н/о н/о +33.7 -0.8 11 +30 +30 жарко 1014.5 1008.8
06 15.01 ЮВ 7 н/о н/о +35.8 -2.0 9 +32 +32 жарко 1012.6 1006.9
07 15.01 ЮВ 6 н/о н/о +36.9 -1.1 9 +33 +33 жарко 1012.0 1006.3
08 15.01 ЮВ 7 н/о н/о +37.0 -1.1 9 +33 +33 жарко 1011.8 1006.1
09 15.01 В 8 н/о н/о +35.8 -0.5 10 +32 +32 жарко 1012.0 1006.3
11 15.01 В 6 н/о н/о +32.0 +2.1 15 +29 +29 жарко 1013.1 1007.4
10 15.01 В 7 н/о н/о +33.6 +1.4 13 +30 +30 жарко 1012.6 1006.9
12 15.01 В 4 н/о н/о +30.4 +3.4 18 +28 +28 жарко 1013.6 1007.9
13 15.01 ЮВ 5 н/о н/о +28.4 +3.3 20 +27 +27 жарко 1013.9 1008.2
14 15.01 Ю 4 н/о н/о +26.4 +3.6 23 +25 +25 комфорт 1013.9 1008.2
15 15.01 ЮВ 4 н/о н/о +25.2 +4.3 26 +25 +25 комфорт 1013.5 1007.8
17 15.01 Ю 5 н/о н/о +24.2 +4.6 28 +24 +24 комфорт 1012.6 1006.9
16 15.01 ЮВ 4 н/о н/о +24.2 +4.6 28 +24 +24 комфорт 1012.9 1007.2
18 15.01 Ю 5 н/о н/о +23.7 +4.6 29 +23 +23 комфорт 1012.8 1007.1
19 15.01 ЮВ 6 н/о н/о +23.3 +4.3 29 +23 +23 комфорт 1013.3 1007.6
20 15.01 ЮВ 5 н/о н/о +22.2 +4.3 31 +22 +22 комфорт 1014.0 1008.3
21 15.01 ЮВ 5 н/о н/о +24.1 +5.0 29 +24 +24 комфорт 1014.8 1009.1
23 15.01 В 10 н/о н/о +31.5 +7.2 22 +30 +30 жарко 1014.9 1009.2
22 15.01 ЮВ 7 н/о н/о +29.3 +4.7 21 +28 +28 жарко 1015.1 1009.4
00 16.01 В 10 н/о н/о +32.7 +6.8 20 +31 +31 жарко 1014.8 1009.1
01 16.01 В 9 н/о н/о +34.6 +6.0 17 +32 +32 жарко 1014.2 1008.5
02 16.01 В 7 н/о н/о +36.0 +5.3 15 +33 +33 жарко 1013.6 1007.9
03 16.01 СВ 7 н/о н/о +37.4 +3.2 12 +34 +34 очень
жарко
1012.8 1007.1
05 16.01 ЮВ 5 н/о н/о +37.6 +0.8 10 +34 +34 очень
жарко
1011.4 1005.7
04 16.01 В 5 н/о н/о +37.1 +3.0 12 +34 +34 очень
жарко
1012.0 1006.3
06 16.01 В 8 н/о н/о +38.8 +3.1 11 +36 +36 очень
жарко
1010.6 1004.9
07 16.01 В 5 н/о н/о +37.7 +0.9 10 +34 +34 очень
жарко
1010.1 1004.4
08 16.01 В 5 н/о н/о +38.4 +1.4 10 +35 +35 очень
жарко
1009.9 1004.2
09 16.01 В 7 н/о н/о +37.5 +2.1 11 +34 +34 очень
жарко
1010.4 1004.7
11 16.01 ЮВ 4 н/о н/о +31.9 +0.1 13 +29 +29 жарко 1011.0 1005.3
10 16.01 В 4 н/о н/о +35.1 +1.5 12 +32 +32 жарко 1010.7 1005.0
12 16.01 В 6 н/о н/о +32.7 +2.7 15 +30 +30 жарко 1011.4 1005.7
13 16.01 ЮВ 5 н/о н/о +30.9 +2.2 16 +28 +28 жарко 1011.6 1005.9
14 16.01 ЮВ 4 н/о н/о +27.9 +2.2 19 +26 +26 жарко 1011.5 1005.8
15 16.01 Ю 5 н/о н/о +26.9 +2.1 20 +25 +25 комфорт 1011.1 1005.4
17 16.01 Ю 5 н/о н/о +25.2 +2.6 23 +24 +24 комфорт 1010.8 1005.1
16 16.01 Ю 5 н/о н/о +26.1 +2.1 21 +25 +25 комфорт 1010.8 1005.1
18 16.01 Ю 5 н/о н/о +24.7 +2.8 24 +24 +24 комфорт 1010.9 1005.2
19 16.01 Ю 5 н/о н/о +24.2 +2.9 25 +23 +23 комфорт 1011.2 1005.5
20 16.01 ЮВ 5 н/о н/о +23.3 +3.3 27 +23 +23 комфорт 1011.9 1006.2
21 16.01 ЮВ 4 н/о н/о +25.7 +3.6 24 +25 +25 комфорт 1012.7 1007.0
23 16.01 СВ 9 н/о н/о +34.3 -0.4 11 +31 +31 жарко 1013.0 1007.3
22 16.01 В 7 н/о н/о +31.4 +0.7 14 +28 +28 жарко 1013.1 1007.4
00 17.01 СВ 9 н/о н/о +36.2 -1.7 9 +32 +32 жарко 1012.8 1007.1
01 17.01 СВ 8 н/о н/о +37.1 -1.0 9 +33 +33 жарко 1012.3 1006.6
02 17.01 В 7 н/о н/о +38.0 -1.9 8 +34 +34 очень
жарко
1011.8 1006.1
03 17.01 В 7 н/о н/о +38.9 -3.1 7 +35 +35 очень
жарко
1011.0 1005.3
05 17.01 СВ 6 н/о н/о +40.7 -3.9 6 +37 +37 очень
жарко
1009.6 1003.9
04 17.01 В 7 н/о н/о +39.2 -2.9 7 +35 +35 очень
жарко
1010.3 1004.6
06 17.01 В 7 н/о н/о +40.6 -6.3 5 +36 +36 очень
жарко
1009.0 1003.3
07 17.01 В 6 н/о н/о +40.3 -6.5 5 +36 +36 очень
жарко
1008.6 1002.9
08 17.01 В 7 н/о н/о +39.9 -6.8 5 +35 +35 очень
жарко
1008.6 1002.9
09 17.01 В 7 н/о н/о +39.4 -7.2 5 +35 +35 очень
жарко
1009.1 1003.4
11 17.01 В 5 н/о н/о +33.6 -6.9 7 +29 +29 жарко 1010.1 1004.4
10 17.01 В 6 н/о н/о +37.2 -8.7 5 +33 +33 жарко 1009.7 1004.0
12 17.01 В 5 н/о н/о +32.2 -7.9 7 +28 +28 жарко 1010.6 1004.9
13 17.01 В 4 н/о н/о +29.7 -8.0 8 +26 +26 жарко 1010.9 1005.2
14 17.01 В 4 н/о н/о +27.5 -9.7 8 +24 +24 комфорт 1010.8 1005.1
15 17.01 ЮВ 5 н/о н/о +25.5 -9.7 9 +23 +23 комфорт 1010.7 1005.0
17 17.01 ЮВ 5 н/о н/о +23.3 -8.8 11 +21 +21 комфорт 1010.6 1004.9
16 17.01 ЮВ 4 н/о н/о +24.7 -8.9 10 +22 +22 комфорт 1010.6 1004.9
18 17.01 ЮВ 4 н/о н/о +22.9 -8.0 12 +21 +21 комфорт 1010.8 1005.1
19 17.01 ЮВ 5 н/о н/о +22.7 -8.1 12 +21 +21 комфорт 1011.1 1005.4
20 17.01 Ю 5 н/о н/о +22.5 -8.3 12 +21 +21 комфорт 1011.6 1005.9
21 17.01 ЮВ 4 н/о н/о +25.3 -2.2 16 +22 +22 комфорт 1012.3 1006.6
23 17.01 СВ 7 н/о н/о +35.3 -3.9 8 +31 +31 жарко 1012.5 1006.8
22 17.01 В 6 н/о н/о +32.3 -7.8 7 +28 +28 жарко 1012.6 1006.9
00 18.01 СВ 6 н/о н/о +37.1 +4.1 13 +34 +34 очень
жарко
1012.4 1006.7
01 18.01 С 7 н/о н/о +39.8 +8.3 15 +38 +38 очень
жарко
1012.0 1006.3
02 18.01 С 5 н/о н/о +39.4 +8.0 15 +37 +37 очень
жарко
1011.3 1005.6
03 18.01 С 6 н/о н/о +41.2 +7.3 13 +39 +39 очень
жарко
1010.4 1004.7
05 18.01 СЗ 3 н/о н/о +41.8 +5.3 11 +39 +39 очень
жарко
1009.2 1003.5
04 18.01 СВ 4 н/о н/о +41.4 +6.3 12 +39 +39 очень
жарко
1009.8 1004.1
06 18.01 СВ 5 н/о н/о +42.7 +4.6 10 +40 +40 очень
жарко
1008.5 1002.8
07 18.01 С 3 н/о н/о +42.1 +4.2 10 +39 +39 очень
жарко
1007.9 1002.2
08 18.01 С 2 н/о н/о +42.0 +4.1 10 +39 +39 очень
жарко
1007.8 1002.1
09 18.01 С 5 н/о н/о +41.4 +3.7 10 +38 +38 очень
жарко
1008.1 1002.4
11 18.01 СВ 4 н/о н/о +37.1 +4.1 13 +34 +34 очень
жарко
1009.1 1003.4
10 18.01 С 3 н/о н/о +39.1 +4.5 12 +36 +36 очень
жарко
1008.6 1002.9
12 18.01 СВ 4 н/о н/о +34.7 +4.3 15 +32 +32 жарко 1009.7 1004.0
13 18.01 С 3 н/о н/о +32.8 +4.6 17 +30 +30 жарко 1010.2 1004.5
14 18.01 С 3 н/о н/о +32.3 +4.2 17 +30 +30 жарко 1010.0 1004.3
15 18.01 С 4 н/о н/о +31.2 +4.1 18 +29 +29 жарко 1009.7 1004.0
17 18.01 С 4 н/о н/о +29.1 +3.9 20 +27 +27 жарко 1009.3 1003.6
16 18.01 СВ 3 н/о н/о +30.8 +4.5 19 +29 +29 жарко 1009.4 1003.7
18 18.01 СЗ 3 н/о н/о +26.7 +3.2 22 +25 +25 комфорт 1009.6 1003.9
19 18.01 Ю 3 н/о н/о +27.0 +3.5 22 +26 +26 жарко 1010.1 1004.4
20 18.01 ЮВ 4 н/о н/о +25.2 +3.2 24 +24 +24 комфорт 1010.6 1004.9
21 18.01 ЮВ 3 н/о н/о +27.4 +3.8 22 +26 +26 жарко 1011.2 1005.5
22 18.01 В 2 н/о н/о +32.6 +3.5 16 +30 +30 жарко 1011.6 1005.9

 

Местоположение метеостанции Marree Aero (Южная Австралия, Австралия): широта -29.66 долгота 138.06 высота над уровнем моря 51 м.

В архиве по умолчанию представлена погода в Marree Aero за последнюю неделю. Архивные данные за месяц целиком и за предыдущие месяцы, начиная с января 2011 года, Вы можете получить, выбрав интересующий диапазон дат из раскрывающегося списка и нажав кнопку "Ввод!".

Внимание! Время в таблицах - всемирное. Для получения местного времени необходимо прибавить поправку, которая в Marree Aero равна 9.5 ч.

Смотрите также архив погоды в соседних городах и на ближайших метеорологических станциях:

Погода в Leigh Creek Airport (Южная Австралия, Австралия) (110 км)
Погода в Olympic Dam Aerodrome (Южная Австралия, Австралия) (146 км)
Погода в Woomera Aerodrome (Южная Австралия, Австралия) (205 км)
Погода в Moomba Airport (Южная Австралия, Австралия) (271 км)
Погода в Port Augusta Arid Lands (Южная Австралия, Австралия) (320 км)
Погода в Coober Pedy Airport (Южная Австралия, Австралия) (332 км)
Погода в Oodnadatta Airport (Южная Австралия, Австралия) (346 км)
Погода в Yunta Airstrip (Южная Австралия, Австралия) (354 км)
Погода в Tarcoola Aero (Южная Австралия, Австралия) (355 км)
Погода в Whyalla Airport (Южная Австралия, Австралия) (383 км)

Пояснения к столбцам:

Ветер - указаны скорость ветра в м/с - средняя за 10 мин, порывы в срок и между сроками (в фигурных скобках) и направление, откуда дует ветер: С - северный, СВ - северо-восточный, В - восточный, ЮВ - юго-восточный, Ю - южный, ЮЗ - юго-западный, З - западный, СЗ - северо-западный.
Видимость - горизонтальная дальность видимости в метрах или километрах. При видимости от 1 до 10 км при отсутствии осадков обычно наблюдается дымка, при ухудшении видимости до 1 км и менее - туман. В сухую погоду видимость может ухудшаться дымом, пылью или мглою.
Явления - указаны атмосферные явления, наблюдавшиеся в срок или в последний час перед сроком; фигурными скобками обозначены явления, наблюдавшиеся между сроками (за 1-3 часа до срока); квадратными скобками обозначены град или гололедные отложения с указанием их диаметра в мм.
Облачность - указаны через наклонную черту общая и нижняя облачность в баллах и высота нижней границы облаков в метрах; квадратными скобками обозначены формы облаков: Ci - перистые, Cs - перисто-слоистые, Cc - перисто-кучевые, Ac - высококучевые, As - высокослоистые, Sc - слоисто-кучевые, Ns - слоисто-дождевые, Cu - кучевые, Cb - кучево-дождевые. Подробнее классификацию облаков см. в Атласе облаков (PDF).
T - Температура воздуха - температура, измеренная на высоте 2 м над землей.
Td - Температура точки росы - температура, при понижении до которой содержащийся в воздухе водяной пар достигнет насыщения.
f - Относительная влажность воздуха - влажноcть воздуха, измеренная на высоте 2 м над землей.
Te - Эффективная температура - температура, которую ощущает одетый по сезону человек в тени. Характеристика душности погоды. При расчете учитывается влияние влажности воздуха и скорости ветра на теплоощущения человека.
Tes - Эффективная температура на солнце - температура, которую ощущает человек, с поправкой на солнечный нагрев. Характеристика знойности погоды. Зависит от высоты солнца над горизонтом, облачности и скорости ветра. Ночью, в пасмурную погоду, а также при ветре 12 м/с и более поправка равна нулю.
P - Атмосферное давление - приведенное к уровню моря атмосферное давление.
Po - Атмосферное давление - измеренное на уровне метеостанции атмосферное давление.
Tmin - Минимальная температура - минимум температуры воздуха на высоте 2 м над землей.
Tmax - Максимальная температура - максимум температуры воздуха на высоте 2 м над землей.
R - Количество осадков - Количество выпавших осадков за период времени, мм. При наведении курсора мыши на число - период времени, за который выпало указанное количество осадков.
R24 - Количество осадков - Количество выпавших осадков за 24 часа, мм.
S - Снежный покров - Высота снежного покрова, см. При наведении курсора мыши на число - состояние снежного покрова и степень покрытия местности в баллах.